パンスターズ彗星

C/2017 G3 ( PanSTARRS )

English version
Home page
Updated on September 10, 2020

---------------------------------------------------------------------

・ プロフィール

発見日 2017年4月7日
発見光度 19.6等
発見者 Pan-STARRS 1 telescope (Haleakala)

・ 写真集

・ 軌道要素

Epoch 2017 Mar. 28.0 TT = JDT 2457840.5                                         
T 2017 Apr. 15.04690 TT                                 Rudenko                 
q   2.5904866            (2000.0)            P               Q                  
z  +0.0034665      Peri.   73.09470     -0.83355564     -0.42521788             
 +/-0.0000024      Node   279.46544     -0.53405640     +0.78355177             
e   0.9910201      Incl.  159.05106     +0.14131083     +0.45303022             
From 155 observations 2017 Apr. 7-2018 Mar. 16, mean residual 0".4.             

・ 光度変化

        m1 = 13.0 + 5 logΔ + 12.5 log r

---------------------------------------------------------------------

軌道要素はM.P.E.C. 2020-R04に掲載されたものです。
光度グラフはComet for Windowsで作成したものです。

---------------------------------------------------------------------

Copyright(C) Seiichi Yoshida (comet@aerith.net). All rights reserved.